Regional Weather Roundup
Issued by NWS

Home |  Current Version |  Previous Version |  Text Only |  Print | Product List |  Glossary On
Versions: 1 2 3 4 5 6 7 8 9 10 11 12 13 14 15 16 17 18 19 20 21 22 23 24 25 26 27
363
ASUS42 KTBW 300612
RWRFL
FLORIDA REGIONAL WEATHER ROUNDUP
NATIONAL WEATHER SERVICE TAMPA BAY RUSKIN FL
200 AM EDT THU MAY 30 2024

NOTE: "FAIR" INDICATES FEW OR NO CLOUDS BELOW 12,000 FEET WITH NO
SIGNIFICANT WEATHER AND/OR OBSTRUCTIONS TO VISIBILITY.

FLZ001>010-012>015-112-114-115-300700-
PANHANDLE FLORIDA

CITY           SKY/WX    TMP DP  RH WIND       PRES   REMARKS
PENSACOLA      CLOUDY    78  59  51 CALM      30.03F
PENSACOLA NAS  CLOUDY    79  68  69 E3        30.02F
CRESTVIEW      CLOUDY    70  65  84 CALM      30.05F
DUKE FIELD     CLOUDY    70  63  78 CALM      30.03F
VALPARAISO     MOCLDY    76  62  60 CALM      30.03F
MARY ESTHER    MOCLDY    74  62  64 CALM      30.03S
PANAMA CITY    MOCLDY    70  67  90 CALM      30.03F
TYNDALL AFB    MOCLDY    77  66  68 NE3       30.03F
APALACHICOLA   PTCLDY    73  64  73 CALM      30.04S

STATION/POSITION SKY/WX   TEMP    WIND        PRES    WAVE   SWELL
                          AIR SEA DIR/SP/G            HT/PER HT/PER
                          (F)     (DEG/KT/KT) (MB)    (FT/S) (FT/S)
30.1N   87.6W              81 83   20/  6/  8 1016.9F   1
29.2N   88.2W              82     130/ 10/ 12 1017.5F   1/ 4
PANAMA CITY BEAC           78 82   30/  4/  5 1017.0F
TOWER C                    82                 1017.4F
28.5N   84.5W              81     290/  4/  6 1017.3F   1/ 6

$$
FLZ011-016>038-118-127-128-134-139-239-300700-
NORTH FLORIDA

CITY           SKY/WX    TMP DP  RH WIND       PRES   REMARKS
MARIANNA       MOCLDY    71  65  81 CALM      30.04F
TALLAHASSEE    PTCLDY    71  63  75 CALM      30.04F
LIVE OAK       CLEAR     64  64 100 CALM      30.05S
CROSS CITY     CLEAR     64  61  88 CALM      30.05S
LAKE CITY      CLEAR     64  61  88 CALM      30.05S
GAINESVILLE    CLEAR     68  60  75 CALM      30.07S
WILLISTON      CLEAR     65  58  79 CALM      30.05F
PALATKA          N/A     64  63  94 CALM      30.05F
MAYPORT NAS    CLEAR     80  60  50 CALM      30.03F
JACKSONVILLE   CLEAR     68  58  70 CALM      30.03S
JAX NAS        CLEAR     80  57  45 W5        30.05R
JAX CECIL      CLEAR     61  57  88 CALM      30.05R
FERNANDINA BEA CLEAR     75  61  60 N7        30.03F
ST AUGUSTINE   CLEAR     73  66  78 SW7       30.05F
PALM COAST     CLEAR     69  65  88 CALM      30.04S

STATION/POSITION SKY/WX   TEMP    WIND        PRES    WAVE   SWELL
                          AIR SEA DIR/SP/G            HT/PER HT/PER
                          (F)     (DEG/KT/KT) (MB)    (FT/S) (FT/S)
SHELL POINT      NOT AVBL
KEATON BEACH     NOT AVBL
CEDAR KEY        NOT AVBL
FERNANDINA                 80 82  340/  2/  4 1016.5S
30.7N   81.3W              80 80                N/A     2/ 3
MAYPORT                    79 81  320/  3/  5 1017.7R
31.4N   80.9W              81 80  310/ 14/ 16 1016.5F   2/ 3
ST AUGUSTINE               75 82  250/  5/  7 1016.9F

$$
FLZ040-043>046-052-053-057-058-063-144-300700-
INTERIOR CENTRAL FLORIDA

CITY           SKY/WX    TMP DP  RH WIND       PRES   REMARKS
OCALA          CLEAR     69  61  75 CALM      30.06S
LEESBURG       CLEAR     75  66  73 CALM      30.05S
SANFORD        CLEAR     75  66  73 CALM      30.03F
ORLANDO EXEC   CLEAR     77  67  71 SW3       30.04S
ORLANDO INTL   PTCLDY    74  69  85 S5        30.04S
KISSIMMEE      CLEAR     75  69  81 SW5       30.05S
WINTER HAVEN   CLEAR     78  69  73 E3        30.05S
LAKELAND INTL  CLEAR     77  67  72 CALM      30.05S
BARTOW         CLEAR     73  68  83 CALM      30.05S
SEBRING        CLEAR     73  68  86 NW7       30.04R
OKEECHOBEE     CLEAR     73  73 100 CALM      30.00F

$$
FLZ041-047-054-059-064-141-147-300700-
EAST CENTRAL FLORIDA

CITY           SKY/WX    TMP DP  RH WIND       PRES   REMARKS
DAYTONA BEACH  CLEAR     71  68  90 CALM      30.04S
DELAND         CLEAR     69  65  85 NW3       30.05S
JFK SPACE CTR  CLEAR     69  68  94 CALM      30.00F
CAPE CANAVERAL CLEAR     72  70  94 CALM      29.99S
PATRICK AFB    CLEAR     80  75  86 SW3       29.99F
MELBOURNE      CLEAR     75  72  90 CALM      30.02F
VERO BEACH     PTCLDY    73  72  96 W3        30.02F
FT PIERCE      PTCLDY    72  70  93 CALM      30.01F FOG
STUART         PTCLDY    77  75  94 CALM      30.01F

STATION/POSITION SKY/WX   TEMP    WIND        PRES    WAVE   SWELL
                          AIR SEA DIR/SP/G            HT/PER HT/PER
                          (F)     (DEG/KT/KT) (MB)    (FT/S) (FT/S)
28.5N   80.2W              83 83  130/  4/  4 1016.8F   1/ 8   2/ 8
28.9N   78.5W              81 81  360/  6/  6 1015.7F   2/10   2/10
TRIDENT PIER               79 87  200/  2/  3 1016.4S
28.4N   80.5W                 81                N/A     1/12
27.6N   80.2W                 81                N/A     1/11

$$
FLZ050-056-061-142-242-148-248-149-249-151-251-155-255-
160-260-300700-
WEST CENTRAL FLORIDA

CITY           SKY/WX    TMP DP  RH WIND       PRES   REMARKS
CRYSTAL RIVER  CLEAR     68  63  83 CALM      30.04F HAZE
INVERNESS      CLEAR     70  66  88 CALM      30.05S
BROOKSVILLE    CLEAR     68  66  93 SE8       30.05S
CLEARWATER AIR CLEAR     79  68  69 CALM      30.03F
ST PETE CLEARW CLEAR     78  70  76 E5        30.03F
TAMPA INTL     PTCLDY    79  67  66 CALM      30.03F
TAMPA EXEC     CLEAR     70  66  88 CALM      30.04F
PLANT CITY     CLEAR     77  68  73 CALM      30.06F
MACDILL AFB    CLEAR     78  67  68 CALM      30.01F
PETER O KNIGHT CLEAR     79  63  57 NE5       30.03F
ST PETERSBURG  CLEAR     84  70  62 N6        30.01F
SARASOTA       CLEAR     81  65  58 N6        30.02F
VENICE         CLEAR     81  77  89 NE8       30.02S

STATION/POSITION SKY/WX   TEMP    WIND        PRES    WAVE   SWELL
                          AIR SEA DIR/SP/G            HT/PER HT/PER
                          (F)     (DEG/KT/KT) (MB)    (FT/S) (FT/S)
27.3N   84.3W              82 83                N/A     1/ 4
CLEARWATER BEACH           82 89  100/  7/  9 1017.2S
MIDDLE TAMPA BAY           83      30/  7/  9 1016.8F
VENICE                     81 84   30/  6/  7 1016.2F

$$
FLZ066-069-070-075>078-162-262-165-265-300700-
SOUTHWEST FLORIDA AND KEYS

CITY           SKY/WX    TMP DP  RH WIND       PRES   REMARKS
PUNTA GORDA    CLEAR     76  67  73 NE5       30.02F
FT MYERS       CLEAR     78  67  68 SE6       29.99F
SOUTHWEST INTL   N/A     77  69  76 E5        30.00F
NAPLES         CLEAR     79  71  76 SE7       29.99F
IMMOKALEE        N/A     70  70 100 CALM      30.00F
MARATHON       CLEAR     84  76  76 SW3       30.01F
KEY WEST NAS   CLEAR     86  76  71 CALM      30.02S HX  96
KEY WEST INTL  CLEAR     83  76  79 CALM      30.02F

STATION/POSITION SKY/WX   TEMP    WIND        PRES    WAVE   SWELL
                          AIR SEA DIR/SP/G            HT/PER HT/PER
                          (F)     (DEG/KT/KT) (MB)    (FT/S) (FT/S)
NAPLES           NOT AVBL
DRY TORTUGAS     NOT AVBL
SAND KEY                   84      90/  4/  6 1016.6F
SOMBRERO KEY                                  1015.4F
LONG KEY                   85     200/  6/  9 1015.1F

$$
FLZ067-068-071>074-168-172>174-300700-
SOUTHEAST FLORIDA

CITY           SKY/WX    TMP DP  RH WIND       PRES   REMARKS
W PALM BEACH   PTCLDY    80  75  84 W6        30.02F
FT LAUDER-EXEC CLEAR     79  73  82 CALM      30.01F
FT LAUDERDALE  PTCLDY    77  71  82 CALM      30.01S
POMPANO BEACH  CLEAR     78  73  84 CALM      30.02F
PEMBROKE PINES CLEAR     77  73  87 MISG      30.02F
OPA LOCKA      CLEAR     78  75  90 CALM      30.01F
MIAMI          CLEAR     78  74  87 CALM      30.01F
WEST KENDALL   CLEAR     79  70  74 CALM      30.01F
HOMESTEAD      CLEAR     78  73  86 CALM      30.00F

STATION/POSITION SKY/WX   TEMP    WIND        PRES    WAVE   SWELL
                          AIR SEA DIR/SP/G            HT/PER HT/PER
                          (F)     (DEG/KT/KT) (MB)    (FT/S) (FT/S)
VIRGINIA KEY               83 88  150/  2/  2 1016.4F
LAKE WORTH                 83 84  270/  4/  5 1016.7F
SETTLEMENT POINT           83     290/  4/  5 1016.4F

$$